Theta_e
303 303 303 304 303 303 302 302 302 301 300 300 300 301 301 301 301 301 302 302 302 302 302 302 302 302 302 302 302 302 303 302 303 304 305 305 305 304 303 303 303 303 302 302 303 305 305 305 305 306 306 305 307 307 307 314 321 324 326 327 328 327 326 326 325 325 325 325 329 332 332 333 333 331 331 331 330 328 328 327 326 328 329 329 330 331 332 331
302 303 303 304 303 303 302 302 302 301 300 300 300 301 301 301 301 301 302 302 302 302 302 302 302 302 302 302 302 303 302 302 304 305 305 305 304 303 303 303 303 303 303 303 304 305 305 305 305 305 306 305 306 308 308 313 321 324 325 328 328 327 326 325 325 326 324 328 332 332 332 333 332 331 331 331 329 328 327 325 326 326 327 329 329 331 331 330
302 302 303 303 303 303 302 302 302 300 300 300 300 301 301 301 301 301 302 302 302 301 301 302 302 302 302 302 303 302 302 304 308 308 307 305 304 303 303 302 302 302 303 304 305 305 305 305 305 304 304 305 305 307 309 313 320 323 325 327 327 325 325 324 325 325 325 330 333 332 332 332 331 330 330 330 329 328 328 325 325 324 325 327 328 331 331 330
302 302 303 303 303 303 302 302 302 301 300 300 301 301 301 301 301 301 301 301 301 301 301 301 302 302 302 303 303 302 303 308 309 307 306 305 303 302 302 301 301 301 302 303 304 305 305 305 305 304 304 305 305 306 309 312 318 322 324 325 326 325 325 324 325 325 328 331 333 332 332 332 330 331 330 330 329 329 328 327 326 325 325 327 328 330 330 329
301 302 303 303 303 303 302 301 301 301 300 300 301 301 301 301 301 301 301 301 300 300 301 301 302 302 303 303 302 303 306 309 307 305 305 303 302 302 302 302 302 302 301 302 303 304 305 305 305 305 305 305 305 306 308 310 315 319 321 323 324 325 325 324 325 327 329 331 331 331 331 331 329 330 330 330 330 330 329 327 327 326 327 327 329 330 329 329
301 302 303 303 303 302 301 301 301 300 300 300 301 301 301 301 301 301 300 300 300 300 301 302 302 302 303 303 302 305 308 308 305 306 305 302 302 302 302 302 302 302 302 303 304 304 305 305 305 305 305 305 305 305 307 309 313 317 319 320 322 324 324 325 327 328 330 331 330 330 331 330 329 330 330 330 330 330 329 328 327 327 327 328 329 330 329 328
301 302 303 303 303 302 301 300 300 300 300 300 301 301 301 301 301 301 300 300 299 300 301 302 302 302 303 302 303 307 309 307 306 306 304 303 302 302 303 303 303 303 303 304 304 304 304 305 305 305 305 305 305 305 306 308 311 316 317 317 319 322 323 324 327 328 330 330 329 330 330 329 329 331 330 328 327 328 328 327 327 326 327 328 329 330 330 328
301 301 303 303 303 302 301 300 300 300 300 300 301 301 301 301 301 300 300 300 300 301 302 302 302 303 303 302 305 308 308 306 305 305 304 303 302 303 303 303 303 304 304 304 304 304 305 305 305 306 305 305 305 305 306 307 309 313 316 316 318 321 323 324 326 328 328 328 329 329 329 329 329 330 329 326 325 326 327 327 326 326 326 327 329 329 330 328
301 301 303 303 303 302 301 300 300 300 300 301 301 301 301 301 301 300 300 300 300 302 302 302 302 303 303 303 306 308 307 306 305 304 304 304 303 303 302 303 304 304 304 304 304 304 304 305 305 305 305 305 305 305 306 307 308 311 314 316 318 320 323 325 325 326 327 328 328 328 329 329 329 329 327 325 324 324 325 326 326 326 326 327 328 328 328 326
301 301 303 303 302 302 300 300 300 300 300 301 301 301 301 301 300 300 300 300 301 302 302 302 302 303 303 303 307 308 307 306 305 304 304 304 304 303 303 303 304 304 304 304 305 304 305 305 305 305 305 306 305 305 306 306 308 311 313 314 316 319 324 325 325 324 325 327 327 328 330 328 328 328 326 324 324 323 324 324 325 326 326 326 327 327 325 324
301 301 303 303 302 301 300 300 300 300 300 301 301 301 301 301 301 300 300 301 301 302 302 302 302 303 303 304 307 308 306 305 304 304 304 304 304 303 303 303 304 304 304 304 305 305 305 305 305 306 306 306 306 305 305 306 308 310 313 315 316 320 323 324 325 325 325 325 325 327 328 326 327 328 325 323 323 323 323 322 323 323 324 324 325 325 324 323
301 302 302 303 302 301 300 300 300 300 300 301 301 301 301 301 300 300 300 301 301 302 302 302 303 303 303 305 308 308 305 305 305 304 304 304 304 304 304 304 304 304 304 304 305 305 306 306 306 307 306 306 305 304 305 308 310 311 313 317 318 322 324 324 324 325 326 325 323 324 326 325 326 326 323 322 322 322 322 321 321 321 322 323 323 324 323 323
301 302 302 303 302 301 300 300 301 300 300 301 301 301 301 300 300 300 300 301 301 302 302 302 303 303 305 307 308 307 305 305 305 305 305 304 304 304 304 304 304 304 304 303 304 304 305 306 307 307 306 306 306 306 307 309 312 313 315 317 317 321 323 323 324 324 325 325 323 324 328 327 325 323 322 322 322 321 321 321 321 320 321 321 322 323 323 322
300 302 303 303 302 301 300 301 301 300 300 301 301 301 301 301 300 300 301 301 301 301 301 302 303 304 306 308 307 306 306 306 306 305 305 305 305 305 304 305 305 305 304 303 303 303 305 306 306 306 306 306 306 306 307 309 311 314 316 317 317 319 322 323 324 324 325 325 323 325 330 328 323 322 322 321 321 321 321 320 320 320 319 319 320 322 323 322
301 302 302 303 302 301 300 301 301 300 301 301 301 301 301 300 300 300 301 301 301 301 301 303 305 306 307 308 306 306 306 306 306 305 305 305 306 305 305 305 305 305 305 304 303 303 305 305 305 306 306 305 305 305 306 309 313 313 315 317 317 319 322 324 324 324 324 324 324 326 330 326 321 321 321 321 321 321 321 320 319 319 319 319 319 320 322 321
301 302 302 302 302 301 300 301 301 300 301 301 301 301 301 300 300 300 300 301 301 301 301 303 306 307 307 307 306 306 307 306 306 305 305 306 306 305 304 304 305 305 305 305 304 303 305 305 305 305 306 306 305 305 305 309 313 314 315 317 318 319 322 325 323 323 323 323 324 326 328 325 321 320 321 321 321 321 321 320 319 318 318 318 318 318 320 321
301 302 302 302 302 301 300 301 301 300 301 301 301 300 300 300 300 300 300 301 301 301 303 304 306 308 308 307 306 306 306 306 306 306 306 306 306 305 304 303 305 306 305 306 305 304 304 305 305 305 305 306 306 306 306 308 312 314 315 317 318 318 321 324 322 321 322 323 324 326 327 325 321 320 320 321 321 321 321 319 318 318 317 317 317 317 319 320
301 302 302 302 302 300 301 301 300 301 301 300 301 300 300 300 300 300 300 301 301 305 308 306 306 307 307 306 306 306 306 305 306 306 306 306 306 306 304 304 306 306 306 306 306 305 305 305 305 305 305 305 305 307 308 309 311 314 315 317 317 319 320 322 322 321 323 324 324 325 326 323 320 319 320 320 321 321 320 319 318 317 316 317 316 316 317 318
301 302 302 302 301 300 301 301 300 301 300 301 301 300 300 301 302 302 301 302 304 305 307 305 305 306 305 305 306 305 305 305 307 307 307 307 306 305 305 305 306 306 306 306 306 306 305 305 305 305 305 305 305 308 310 310 312 314 315 316 317 319 320 321 322 322 322 324 324 325 324 321 320 320 319 320 320 320 319 318 317 316 316 316 315 315 316 317
301 302 302 302 301 300 301 300 300 300 300 301 300 300 303 304 306 306 302 303 306 305 304 304 304 305 304 305 306 305 305 306 307 308 307 307 306 305 306 307 307 307 306 306 306 306 305 306 305 305 306 307 308 310 312 312 313 313 313 315 318 320 321 321 321 321 322 324 325 324 322 320 319 319 319 319 320 319 318 317 317 316 316 315 315 315 316 317
301 302 302 302 300 300 301 300 300 300 300 300 300 302 304 303 304 305 301 302 306 304 303 303 303 304 305 306 306 305 305 306 308 308 308 307 307 306 307 307 307 307 307 306 306 306 306 305 305 306 308 310 311 312 313 313 313 313 312 314 318 319 318 318 319 320 322 324 324 324 321 320 319 318 319 319 319 319 318 317 317 316 316 316 315 315 316 316
301 302 302 301 300 300 300 300 300 300 300 300 300 303 303 300 300 301 299 302 305 304 303 302 304 305 305 306 306 305 305 307 309 308 308 307 308 308 307 307 307 306 306 306 305 305 306 306 306 309 311 311 312 312 313 313 313 314 313 314 317 316 315 316 318 320 322 323 323 322 321 320 319 318 319 319 319 319 318 317 317 316 316 316 315 315 316 316
301 302 302 301 300 300 300 299 300 300 300 300 301 303 302 299 299 299 299 302 305 305 304 303 304 305 305 306 306 305 305 307 309 308 308 307 308 309 308 308 308 307 307 306 305 306 307 308 309 310 310 311 313 313 312 313 313 314 313 315 317 315 315 316 317 319 322 322 322 321 321 320 319 318 318 318 319 319 318 317 317 317 317 316 316 316 316 316
301 302 302 301 300 300 300 299 299 300 300 300 301 302 300 299 299 298 300 304 307 306 304 304 304 305 305 305 305 305 306 307 308 308 308 306 307 309 309 309 309 309 308 308 308 309 310 310 310 311 311 312 313 313 311 312 315 315 314 316 316 316 317 316 316 319 320 320 321 320 320 319 318 319 319 318 319 319 318 318 317 317 317 317 317 316 317 317
301 302 301 300 300 300 299 299 299 300 299 299 300 300 299 299 299 298 300 306 307 305 305 306 306 306 305 306 307 306 307 307 308 308 307 306 306 308 309 310 310 310 310 310 310 311 310 309 310 312 313 312 312 312 311 311 315 317 316 316 316 317 318 317 317 318 319 320 320 319 322 320 317 319 319 319 319 319 319 318 318 317 317 317 317 317 317 317
301 302 301 300 300 299 300 301 300 299 300 300 299 300 299 299 299 298 301 307 307 304 305 307 308 308 306 306 307 307 308 308 308 308 307 307 307 307 309 310 310 310 310 310 310 311 310 308 308 311 314 312 311 313 311 310 316 319 316 317 318 317 318 318 318 319 320 320 318 318 322 322 318 319 319 318 319 319 319 319 318 318 317 318 317 317 317 317
301 302 301 300 300 299 302 305 301 298 302 303 300 300 300 299 299 299 303 309 307 303 304 306 307 307 305 306 307 308 310 309 308 309 307 307 307 307 308 310 311 311 310 311 312 311 309 307 307 309 314 314 312 313 311 310 316 318 315 316 318 318 318 318 319 320 319 319 318 316 319 321 319 319 319 317 319 320 319 319 319 318 318 318 318 317 317 318
302 302 300 300 299 299 301 303 300 298 302 302 300 299 300 300 299 301 306 308 303 302 305 306 306 306 305 307 308 308 309 309 309 310 308 307 307 308 310 311 311 311 310 312 314 310 307 307 306 307 312 314 312 311 309 310 315 317 313 314 315 316 317 317 318 319 318 319 320 317 318 322 322 320 319 318 319 321 319 319 319 319 318 318 318 318 318 318
301 301 300 300 299 299 299 300 300 300 300 300 299 300 301 300 300 303 308 306 302 303 305 306 307 306 305 307 309 308 308 309 310 309 308 309 308 308 311 309 309 311 311 311 311 309 307 306 304 304 309 312 310 309 309 312 316 315 313 313 313 314 315 316 317 317 319 321 322 319 317 322 323 321 320 319 320 321 319 318 319 319 319 318 318 318 319 318
301 301 300 300 299 299 299 299 299 300 299 299 299 300 300 300 303 307 307 303 303 304 305 306 307 306 306 307 308 308 308 309 309 309 310 311 309 309 310 308 308 311 311 310 309 308 307 305 303 304 307 307 306 309 312 315 316 315 314 313 314 314 314 315 315 316 321 323 322 318 316 320 324 322 320 321 321 321 320 319 319 320 319 319 319 319 319 319
301 301 300 299 299 299 300 300 299 299 299 299 299 300 301 303 306 308 304 302 305 305 305 306 306 306 306 307 308 308 308 309 309 310 310 311 311 310 309 308 308 311 313 312 311 309 308 308 306 306 305 304 307 312 315 316 316 317 315 314 316 317 317 318 316 317 323 323 320 317 315 319 325 323 319 320 321 320 320 320 319 320 320 319 320 320 320 320
301 301 300 299 299 299 301 302 300 299 299 299 299 300 303 307 308 306 303 304 307 306 304 305 305 306 306 307 308 308 308 309 309 310 311 311 312 310 309 308 308 311 315 314 313 312 311 309 308 308 306 306 310 315 316 316 316 317 316 317 321 322 321 322 321 320 322 321 319 317 317 322 325 323 320 321 322 321 321 321 320 320 320 320 320 320 320 320
301 300 299 299 299 299 300 300 300 299 299 299 300 302 305 307 307 306 304 305 306 304 303 304 305 306 306 307 308 307 308 310 309 310 311 311 311 310 309 308 306 310 314 314 313 315 314 311 309 310 308 307 309 314 317 316 314 314 315 316 321 324 323 323 322 322 321 320 319 317 318 322 324 322 320 319 319 319 320 322 321 320 320 320 320 321 321 321
301 300 300 299 299 299 300 300 299 299 299 300 302 305 306 306 306 306 305 305 304 303 303 304 304 305 307 307 307 306 308 311 310 309 310 310 310 310 309 308 307 307 309 312 313 314 316 314 313 312 309 308 309 310 312 314 313 313 313 314 317 320 321 322 322 323 323 321 319 318 320 322 323 321 315 313 313 313 316 320 321 320 321 321 321 321 321 321
300 300 299 299 299 299 299 300 299 298 299 301 304 307 308 305 305 306 306 304 304 303 304 304 303 305 307 307 307 306 306 309 310 309 309 309 308 308 308 307 307 305 307 311 314 314 316 316 314 311 308 308 310 308 307 312 316 315 313 314 316 315 316 319 319 319 320 321 319 318 319 318 320 318 312 311 312 312 314 317 319 320 321 321 321 320 320 320
300 299 299 299 299 299 299 299 299 298 299 303 307 309 308 304 303 305 306 305 304 303 304 305 304 306 307 307 308 307 305 307 310 309 309 308 307 307 307 307 306 305 305 309 313 314 316 316 314 312 309 309 310 308 307 310 317 317 314 315 314 312 312 317 318 317 319 321 319 317 317 315 317 316 313 312 313 312 313 314 315 317 319 320 320 320 320 320
299 299 299 298 298 299 299 299 298 298 300 304 308 309 305 301 301 303 303 303 303 302 302 305 305 305 306 307 307 307 306 307 309 309 309 310 308 307 306 306 306 306 304 305 310 313 314 316 315 313 313 311 306 306 307 306 309 315 314 312 312 311 312 315 319 320 320 320 318 317 317 317 317 316 313 312 312 312 313 314 313 315 317 318 319 319 320 319
299 299 299 299 299 298 298 298 299 300 302 305 308 307 303 300 300 300 301 301 301 301 302 305 305 304 305 307 307 306 307 308 309 309 309 310 309 307 305 305 306 306 303 303 308 311 312 316 317 313 314 313 307 308 311 307 306 311 311 310 312 314 316 315 317 320 321 318 317 316 313 313 314 313 313 313 313 312 313 314 314 314 315 316 317 318 318 318
298 300 302 300 298 299 299 299 300 302 304 307 310 308 302 300 299 298 299 300 300 301 303 304 304 304 304 305 306 306 307 307 308 309 309 309 309 307 304 304 304 304 303 304 307 309 310 315 318 315 314 314 310 309 310 307 307 309 308 309 310 311 313 312 311 315 318 318 317 315 311 310 308 308 310 313 313 312 313 314 314 314 316 316 316 316 316 317
299 304 305 301 298 299 300 299 301 305 306 306 308 306 300 299 300 298 298 299 299 300 303 304 303 304 305 305 304 304 305 307 307 308 308 308 309 307 303 301 303 302 301 303 306 308 310 315 317 315 315 314 310 307 305 304 306 307 308 308 306 306 309 310 308 309 313 317 318 315 311 308 306 305 307 309 310 312 313 315 316 316 317 317 316 316 315 315
301 306 305 299 299 299 300 301 302 305 306 305 303 302 299 300 301 300 298 299 299 299 300 301 303 304 304 304 304 303 304 306 306 307 307 307 309 308 303 300 301 301 302 306 308 307 309 314 315 314 314 313 309 304 301 302 303 304 305 305 303 304 309 313 311 309 310 313 314 314 311 307 305 305 307 307 308 308 310 314 316 315 315 316 316 315 315 314
303 307 304 299 299 299 302 305 302 302 305 304 301 300 300 301 300 300 299 298 299 298 297 299 302 303 304 303 303 303 303 305 307 307 307 306 307 307 303 300 301 301 302 307 309 305 304 310 313 314 312 310 306 301 298 298 299 301 303 303 304 305 307 312 314 312 311 310 310 316 315 308 305 305 305 306 305 304 307 310 313 314 314 314 314 314 314 314
304 306 302 299 299 299 304 308 305 304 303 299 297 298 299 300 299 299 298 297 299 300 298 299 300 302 303 302 302 303 303 305 307 307 306 306 306 304 301 300 301 302 303 307 308 305 304 310 314 315 312 308 304 300 297 297 300 305 305 304 304 304 305 308 308 309 313 311 311 318 315 308 306 304 302 303 303 303 306 307 309 311 311 312 314 314 314 314
304 303 300 299 298 300 305 308 308 307 302 297 298 298 297 298 298 299 298 298 299 300 300 300 300 300 301 301 301 303 304 305 307 307 306 307 306 302 300 300 301 302 304 305 305 305 307 309 311 315 315 312 310 307 307 305 305 307 307 306 306 305 305 308 308 311 313 308 307 315 313 307 307 305 302 303 303 303 305 306 307 309 309 310 312 314 315 315
303 302 301 299 299 300 304 305 305 306 302 300 300 299 298 299 298 299 298 298 298 298 299 300 300 299 300 300 302 303 303 304 306 307 307 307 306 303 300 300 300 300 301 300 299 302 306 306 308 314 315 313 313 312 311 309 306 306 308 308 307 307 307 309 313 316 314 308 308 313 311 306 306 307 305 305 305 305 305 305 306 307 307 308 310 312 314 314
303 304 303 301 299 300 302 301 301 304 303 302 303 301 301 301 299 298 298 298 297 297 298 298 298 299 301 302 303 304 303 304 304 306 307 307 306 304 301 301 300 299 299 299 298 300 305 305 305 311 312 309 310 308 303 302 305 308 310 308 307 307 307 309 316 316 310 310 311 310 309 308 305 306 307 307 308 308 306 305 305 306 305 306 307 310 312 314
303 305 305 303 302 301 302 301 300 303 303 303 305 303 301 302 301 299 298 299 298 297 298 297 297 300 303 304 305 305 305 305 305 306 307 306 306 305 302 301 301 300 300 300 300 301 308 309 303 306 309 305 304 303 299 299 303 306 306 306 306 307 308 311 315 312 309 312 312 307 309 311 307 306 308 307 308 308 306 305 305 305 305 305 305 307 310 313
303 304 302 303 305 304 305 303 301 302 303 303 303 302 302 303 303 301 300 298 297 297 299 299 300 302 304 303 305 307 307 307 307 307 307 307 307 307 306 303 302 301 300 301 300 301 309 310 302 303 308 303 299 300 298 297 300 301 302 304 305 306 307 308 309 308 309 314 313 307 307 311 310 310 309 308 308 307 306 305 304 304 304 304 304 304 307 311
301 302 300 301 303 303 303 303 302 302 304 303 302 302 303 304 304 302 301 299 298 298 299 302 304 304 303 303 304 307 308 308 308 308 307 307 307 308 309 307 304 302 301 303 302 299 306 311 302 302 309 305 300 299 297 297 299 301 302 302 304 305 305 305 306 306 307 309 310 307 307 311 311 310 308 307 306 306 305 304 304 303 303 303 304 304 305 308
300 302 300 300 302 300 300 302 303 304 304 303 303 304 303 304 305 304 301 300 302 300 299 302 306 303 302 303 303 305 307 307 308 308 307 308 308 307 307 306 305 304 304 305 305 302 306 310 302 302 311 309 301 299 299 297 298 303 306 304 302 302 303 304 305 305 306 309 308 307 310 315 312 307 306 305 304 305 305 305 305 304 304 303 303 304 305 306
301 303 301 301 303 300 300 302 302 304 304 303 303 304 303 304 305 303 301 301 302 301 300 302 305 303 302 303 303 304 304 304 306 305 303 305 306 304 304 303 303 306 306 305 305 306 307 308 304 307 312 310 304 301 301 299 299 304 309 308 306 304 304 306 306 306 309 311 310 309 313 315 310 305 305 304 303 305 305 305 305 305 305 305 303 303 304 304
301 301 300 303 305 302 300 302 302 304 306 304 303 304 303 304 304 302 303 302 300 300 301 301 303 303 303 304 304 304 302 301 302 301 300 301 301 300 301 301 300 303 306 305 305 306 306 307 307 308 310 311 307 303 303 305 308 309 307 307 309 307 305 305 305 306 309 310 312 313 312 310 307 305 307 306 305 305 305 305 305 304 303 303 303 303 304 303
Wind_Speed
8 9 9 9 9 8 7 4 3 2 2 2 2 4 4 4 2 3 4 5 6 8 10 12 14 16 18 20 22 23 21 18 14 8 7 9 11 13 14 14 13 11 10 9 8 10 10 8 8 6 6 7 9 11 13 16 17 13 8 8 10 12 11 8 9 10 8 8 6 16 20 15 10 12 18 15 17 21 14 13 11 9 14 15 20 37 42 35
8 9 9 10 9 8 7 5 3 2 1 2 3 4 4 4 2 2 3 4 6 8 11 13 15 17 20 22 22 22 19 17 12 7 7 10 12 12 11 11 10 10 9 7 8 10 10 10 9 7 7 8 10 10 12 14 17 14 5 7 12 9 8 10 12 14 12 8 12 15 17 16 15 19 20 13 14 20 15 12 12 14 17 17 24 39 39 35
8 8 9 10 9 8 6 5 2 1 1 2 4 5 5 3 2 1 3 5 7 9 12 14 17 19 21 22 21 19 19 16 9 2 5 8 10 11 13 13 11 10 9 8 9 10 10 11 10 10 10 10 11 12 13 14 16 16 9 9 11 6 8 15 19 23 17 12 18 15 17 15 15 22 20 14 15 16 13 14 16 17 20 22 30 40 37 35
7 8 8 9 9 7 6 5 2 1 0 3 4 6 5 3 1 1 4 6 9 11 13 15 17 19 21 21 20 18 17 11 4 1 5 8 14 16 16 15 13 11 9 9 9 10 10 11 10 10 11 10 12 14 14 15 14 13 14 11 6 5 10 17 24 22 12 15 19 12 15 13 12 18 18 19 14 8 13 20 22 23 27 28 33 38 36 36
7 8 8 9 9 7 6 5 3 1 1 3 5 6 5 3 1 2 5 7 10 12 14 16 17 20 20 19 18 16 13 5 2 2 7 13 18 18 16 13 12 10 10 9 9 10 10 11 10 11 11 9 11 12 13 19 17 10 16 17 10 9 9 15 21 12 4 17 18 10 10 12 15 14 17 20 8 5 16 22 23 27 29 28 36 39 35 37
7 8 8 9 8 7 6 5 3 1 2 4 6 6 5 3 1 3 6 8 10 12 14 15 17 19 18 18 16 12 7 3 3 4 8 17 19 17 15 13 12 11 10 10 10 11 11 11 10 11 11 9 9 10 12 19 20 11 13 18 18 18 12 13 13 5 4 15 15 13 15 17 17 9 14 15 5 4 18 23 22 25 26 25 35 41 38 38
7 8 8 9 8 6 6 6 3 1 2 5 6 6 5 2 1 4 6 8 11 13 14 15 17 18 18 18 14 9 6 4 4 7 12 20 18 15 16 14 14 13 10 10 10 11 11 12 11 12 10 8 9 11 14 18 20 14 11 13 17 20 20 17 8 3 10 14 12 17 22 20 16 10 13 12 9 13 19 22 24 26 27 26 34 40 38 38
7 7 8 8 7 6 6 5 3 1 3 5 6 6 4 2 2 4 6 8 11 12 14 16 17 17 17 18 14 9 7 2 4 11 18 21 16 15 17 15 13 11 10 10 11 11 12 13 12 13 9 9 11 12 14 16 17 15 12 13 15 17 22 19 7 4 10 14 11 12 20 19 20 18 13 13 13 19 21 20 23 26 27 28 35 38 38 38
7 7 8 8 6 6 6 5 3 1 3 5 7 7 4 2 2 4 6 8 11 12 14 16 16 15 16 16 13 8 4 4 9 14 18 20 17 16 15 13 11 10 11 11 11 12 12 12 12 12 11 13 15 13 14 11 10 13 14 15 15 14 16 14 9 7 8 13 10 8 13 15 21 20 11 12 17 19 21 20 23 26 28 30 35 38 38 38
7 7 8 8 6 6 6 5 3 2 4 6 8 7 4 2 2 4 6 9 10 12 14 15 15 14 15 14 10 6 5 9 14 15 15 18 20 17 13 11 10 10 10 11 11 11 12 12 13 15 14 14 14 14 16 12 9 14 15 17 19 16 12 11 12 13 10 14 13 9 7 14 20 15 5 12 20 20 21 21 24 27 30 33 36 38 37 36
7 7 8 7 7 6 6 5 3 3 5 7 8 6 4 2 2 4 6 9 10 12 14 15 14 13 15 13 8 5 7 12 15 18 18 18 18 15 14 12 10 10 10 11 11 10 12 13 13 14 11 9 12 13 16 15 15 19 14 11 17 16 11 10 12 17 14 11 14 8 7 13 12 5 6 17 21 21 23 23 25 28 31 33 35 39 37 36
7 7 8 7 7 7 5 5 4 3 6 7 8 6 3 2 2 4 6 8 11 12 14 16 14 13 16 14 9 7 11 17 18 19 18 15 14 13 14 13 11 10 11 11 11 10 10 12 10 10 11 10 11 9 11 13 16 20 14 7 8 7 7 11 11 19 16 9 17 14 8 4 3 5 15 22 20 21 24 25 26 28 31 33 35 38 37 37
7 7 8 7 7 7 5 5 4 4 6 7 7 5 3 2 3 5 6 9 11 12 14 16 14 13 14 10 8 8 14 21 19 16 13 12 14 15 13 12 13 12 11 12 13 11 9 10 9 10 15 14 12 10 12 15 13 12 8 2 4 3 5 12 13 18 14 13 26 19 3 3 3 11 20 21 20 21 22 23 25 28 31 33 35 38 36 35
7 7 8 7 7 7 5 5 3 4 6 7 6 5 4 3 4 5 7 9 10 12 14 15 13 12 10 8 8 10 16 21 18 13 12 16 18 16 12 9 12 12 10 11 11 10 9 10 9 10 14 13 15 15 14 11 5 5 3 2 3 5 5 10 14 16 10 14 29 17 3 5 5 11 19 19 20 21 21 21 24 28 28 29 33 37 37 33
7 7 8 7 7 6 5 4 3 4 5 6 5 4 4 4 5 6 8 9 11 12 13 14 12 10 10 9 8 11 16 19 16 14 16 19 19 15 12 8 10 10 9 11 11 9 8 9 9 9 11 12 14 12 8 5 2 1 3 2 4 5 5 8 12 15 8 10 22 12 2 5 5 11 18 19 20 18 19 20 22 26 26 27 29 33 36 33
6 7 8 7 7 6 5 4 2 4 5 5 5 4 4 5 6 7 8 9 11 12 13 12 10 10 8 5 7 12 16 17 16 16 15 16 16 14 13 9 9 9 10 12 10 8 8 7 8 10 11 10 8 6 4 5 2 2 5 4 5 6 4 5 7 13 13 9 13 8 3 5 5 11 17 20 21 18 18 19 21 24 25 27 26 29 33 33
6 7 7 7 7 5 4 3 2 3 4 4 4 4 4 5 7 8 8 9 11 14 13 8 9 10 6 3 12 15 16 18 17 16 13 13 14 13 11 9 7 7 8 9 8 7 8 8 7 7 8 7 5 5 4 5 5 3 4 3 5 8 7 4 1 6 14 13 8 5 3 5 7 12 18 20 21 19 17 18 21 23 24 26 25 27 31 33
6 7 7 7 6 5 4 2 1 3 4 3 4 4 5 6 8 9 7 7 10 11 7 5 9 8 5 6 16 17 19 20 16 14 12 13 15 13 10 7 6 6 7 8 9 10 9 8 7 4 5 5 4 5 5 6 5 4 6 4 3 8 9 7 2 4 12 11 7 6 4 7 9 11 16 20 21 19 16 18 21 23 24 25 25 26 30 31
5 6 6 6 6 4 3 1 2 3 3 3 4 4 5 7 10 9 4 5 7 6 3 5 7 3 6 14 18 18 20 18 14 11 10 13 15 12 10 7 6 7 7 5 7 11 9 6 6 4 4 6 6 7 7 8 6 3 4 4 4 7 8 8 4 5 11 9 7 9 6 8 11 9 13 18 20 18 16 17 20 21 22 23 24 26 28 29
5 5 6 6 5 3 2 0 3 3 2 3 3 3 5 8 8 4 4 5 6 4 3 5 6 5 10 15 16 18 18 14 11 8 9 14 13 10 9 7 7 6 7 4 4 9 10 4 4 6 6 6 4 4 5 6 6 3 2 4 5 6 6 7 5 5 9 7 7 9 8 9 11 8 11 17 18 17 17 18 18 21 22 23 24 26 27 28
5 5 5 5 4 3 2 1 3 3 3 3 1 2 5 8 4 2 8 7 7 6 6 6 9 9 10 13 15 18 16 12 10 6 8 13 10 7 5 4 6 4 7 10 4 2 5 5 6 6 4 3 2 4 4 2 5 4 1 3 4 3 2 2 6 6 6 5 5 8 9 8 9 8 10 15 14 13 18 19 19 22 22 23 25 27 27 28
4 4 5 4 2 2 1 2 4 3 3 3 0 2 5 6 4 5 8 6 7 9 7 8 10 10 12 13 13 16 14 10 9 7 9 13 7 3 3 2 5 5 4 7 5 1 4 7 7 4 3 4 5 4 4 3 4 2 0 3 4 4 1 2 4 6 3 3 5 7 9 7 7 7 9 13 11 11 17 19 20 24 24 23 26 28 28 28
3 4 4 3 1 2 1 2 4 3 3 2 1 2 6 6 6 7 7 7 8 8 6 7 8 9 12 11 12 16 11 6 7 9 12 13 5 4 6 5 6 6 2 4 5 3 4 3 4 6 6 7 4 1 1 2 3 3 4 4 4 6 4 1 1 6 6 3 5 8 7 4 5 5 6 10 10 10 14 16 18 21 22 23 26 30 30 30
3 4 3 2 1 1 0 2 3 3 2 2 3 4 7 7 7 7 7 6 4 4 5 7 7 8 12 12 13 13 8 8 9 9 12 13 8 6 6 4 4 6 3 1 2 4 5 4 9 8 5 4 2 2 2 2 3 4 6 6 7 7 6 4 3 6 7 4 6 9 6 2 3 7 6 7 9 10 13 16 17 18 19 21 24 28 29 31
2 3 2 1 1 2 1 2 3 2 2 3 4 6 7 8 7 6 6 4 2 3 4 6 6 7 12 13 13 13 10 11 9 9 11 11 9 6 5 3 3 3 2 3 3 2 4 7 11 7 2 1 2 1 1 1 3 2 2 4 9 9 8 11 8 6 4 1 3 6 4 1 3 6 7 6 7 9 13 16 17 19 21 22 24 26 27 28
2 2 1 1 2 2 2 2 2 2 2 3 4 6 7 7 7 5 4 2 1 2 4 5 5 6 11 11 13 16 9 7 9 10 11 11 9 6 4 3 2 3 3 1 1 2 2 8 9 5 1 2 1 0 1 2 3 3 2 2 8 10 11 14 11 5 3 2 2 2 3 2 2 4 6 6 6 8 11 13 16 20 21 22 25 26 26 27
2 2 0 2 2 3 3 2 2 3 1 3 4 6 6 6 5 4 3 1 1 3 3 3 4 6 12 13 14 12 4 8 13 8 9 13 9 4 3 3 2 5 3 1 1 1 3 8 8 6 2 3 2 2 3 4 1 4 3 4 6 9 10 10 8 4 3 4 4 1 0 2 1 4 6 7 7 8 8 9 13 19 22 22 24 26 26 27
1 1 1 2 3 3 3 2 2 3 3 3 4 5 5 3 3 4 2 1 1 3 1 2 4 6 14 16 10 6 6 9 8 6 12 13 7 2 3 2 3 6 6 3 2 2 4 6 7 5 3 2 1 4 4 5 2 4 5 6 6 6 7 5 4 4 4 5 3 2 2 1 2 3 6 7 8 9 10 9 11 16 22 23 24 26 26 26
1 1 2 3 3 3 3 3 3 3 4 4 4 4 3 2 3 2 1 2 1 2 2 4 4 7 16 15 5 7 9 4 1 9 15 9 5 2 3 1 0 4 8 7 2 3 3 3 3 3 2 2 2 5 5 3 2 6 8 8 7 6 5 4 4 4 4 3 4 4 2 1 2 3 6 7 7 8 9 8 9 15 21 23 24 25 25 24
1 1 3 3 3 3 3 3 3 2 3 3 3 3 3 3 3 1 1 2 0 2 3 4 4 7 14 11 4 10 11 3 5 12 11 5 3 5 5 4 2 2 3 5 3 1 3 4 2 1 1 3 5 5 3 3 8 9 7 7 6 4 4 4 3 3 3 3 3 4 3 3 2 3 6 5 5 7 9 8 10 14 18 21 23 25 25 24
2 2 3 3 3 3 3 3 2 2 3 2 2 3 4 2 1 0 1 1 0 3 4 3 4 6 9 6 3 8 9 6 8 8 5 5 2 6 8 4 3 2 1 2 1 0 3 3 2 3 5 4 4 3 6 7 8 6 4 2 3 3 3 2 2 1 2 2 2 3 4 3 0 2 5 4 4 9 9 10 12 14 18 21 22 24 25 25
3 3 3 3 3 3 3 2 2 2 2 1 1 3 3 1 1 1 1 1 1 2 2 1 4 5 6 6 3 5 6 5 7 5 2 4 2 4 7 4 4 2 1 3 2 1 2 1 2 3 4 7 3 1 4 6 5 4 2 1 1 2 1 2 2 1 1 1 2 2 3 1 2 2 7 6 6 10 11 12 15 18 20 22 23 25 25 25
3 3 4 3 3 4 3 3 2 2 2 0 2 2 2 1 1 1 1 2 1 1 1 2 4 5 6 6 4 4 4 3 5 7 3 3 4 2 5 7 6 3 1 3 3 3 1 2 4 3 2 8 6 1 2 3 3 3 1 2 2 1 1 2 2 1 2 2 0 2 2 1 1 2 6 5 5 8 12 18 23 24 24 24 24 25 25 26
4 3 4 3 3 3 3 3 2 2 2 1 2 1 2 1 1 1 1 1 1 2 2 1 3 6 4 3 2 2 2 3 2 6 4 4 4 4 3 6 8 3 2 2 1 3 2 0 5 4 1 7 6 1 0 1 1 1 1 0 2 1 1 2 1 1 3 2 0 1 1 1 1 0 2 5 10 13 14 20 27 27 26 26 24 24 26 27
4 4 3 3 3 3 3 3 3 3 1 2 1 1 1 0 1 0 0 1 0 1 2 0 2 5 2 2 2 1 1 1 3 4 3 3 3 4 5 4 6 4 1 1 1 1 2 0 2 0 2 3 2 1 2 2 1 1 1 2 1 0 0 1 1 2 2 2 2 1 2 2 1 1 2 6 10 12 15 17 22 23 25 26 24 24 26 27
5 4 3 3 3 3 3 3 3 3 1 2 1 1 0 0 1 1 1 1 1 1 4 3 1 2 3 1 2 1 2 2 4 4 1 3 3 3 4 3 3 4 2 1 3 1 1 1 2 1 2 4 3 3 2 1 1 0 1 2 0 2 2 2 2 1 1 2 1 0 2 1 1 2 1 4 7 7 10 13 16 19 23 25 24 25 26 27
6 4 3 3 3 3 3 3 3 2 2 1 2 1 1 1 1 3 2 1 1 1 3 2 1 1 3 2 2 5 2 2 3 4 2 2 2 3 5 3 2 3 2 1 1 1 1 2 2 1 2 4 5 4 2 2 1 1 2 1 1 2 3 1 1 2 2 4 2 1 4 2 0 2 2 4 7 6 6 9 12 15 18 21 22 24 25 25
6 4 1 2 3 3 3 3 3 2 2 1 1 0 1 1 2 3 2 2 1 1 1 1 1 1 2 3 3 5 5 3 4 4 3 2 2 2 4 3 4 6 3 2 1 1 1 1 2 2 1 2 3 1 1 3 4 3 3 2 1 2 2 1 0 0 1 4 3 2 5 3 2 2 3 5 8 7 7 7 9 11 13 17 19 21 23 23
6 3 0 2 4 4 4 3 3 3 2 1 1 1 1 0 2 2 1 2 1 1 1 0 0 1 1 2 3 3 3 3 4 4 2 3 3 2 4 2 5 10 10 3 1 2 1 1 1 2 3 1 1 3 3 3 3 4 4 2 1 1 1 1 1 1 1 3 3 4 4 3 3 2 2 4 6 8 9 7 7 11 14 16 18 20 21 22
7 3 1 3 5 5 4 4 3 2 0 1 1 0 1 1 1 2 1 1 2 1 1 1 1 0 1 1 1 2 3 2 4 4 2 3 3 2 4 4 5 10 13 6 2 2 2 1 2 3 0 2 2 3 1 2 3 2 3 4 3 2 0 1 0 0 1 2 3 4 4 2 3 4 4 5 4 4 6 6 7 12 15 15 15 17 18 20
7 2 2 4 6 6 5 4 2 1 0 0 1 0 1 1 0 2 1 1 1 2 1 1 2 1 1 1 1 1 3 3 3 2 2 3 2 1 3 6 5 8 9 5 1 2 3 1 2 2 2 2 1 1 1 1 2 2 3 3 3 3 1 1 2 1 1 2 2 4 4 1 3 3 4 5 5 6 6 7 10 13 14 13 12 12 13 15
6 1 1 4 7 7 5 2 2 1 0 0 1 1 1 2 0 2 1 1 1 1 1 1 2 1 2 0 1 2 3 3 3 2 1 2 1 0 4 9 9 6 3 3 3 2 1 2 2 1 1 2 2 1 2 2 2 1 1 2 3 2 1 2 2 2 2 2 1 3 4 1 3 3 4 4 5 6 7 10 12 13 11 10 10 10 10 11
4 1 2 5 8 8 4 0 1 2 1 1 1 1 1 2 1 2 2 0 0 1 0 0 1 0 1 1 1 2 3 2 2 1 1 2 1 1 4 9 10 6 2 2 4 3 2 1 2 2 1 1 2 2 1 1 2 2 1 1 2 1 1 2 2 2 2 3 2 3 4 1 2 2 2 3 5 6 7 9 11 11 9 6 6 7 9 10
4 2 2 6 9 8 3 0 1 3 2 1 0 1 1 2 0 2 2 2 1 0 0 0 0 1 0 1 1 1 2 1 2 2 1 2 2 1 4 8 7 5 3 1 3 5 4 2 2 2 2 3 2 1 1 2 2 2 3 2 3 4 3 1 2 1 3 2 0 4 3 2 2 1 1 3 4 7 7 8 9 10 8 6 4 5 6 9
4 3 2 6 10 8 3 2 1 3 3 2 1 1 1 2 1 3 3 1 1 0 0 0 1 1 1 1 0 1 0 1 1 2 2 2 2 1 4 7 5 3 3 2 3 4 2 2 2 2 2 2 1 2 2 3 3 3 4 4 4 6 7 3 1 3 4 2 1 4 2 1 1 0 2 3 5 7 7 8 9 8 7 6 5 5 6 7
5 2 2 4 7 7 5 4 1 3 4 3 1 2 3 2 1 3 2 1 3 1 0 0 1 1 1 1 1 1 1 2 2 2 3 2 2 2 3 6 4 3 5 4 4 2 2 2 3 3 3 3 2 2 1 1 3 4 4 6 5 6 6 3 2 3 1 1 3 2 1 2 2 3 4 3 5 6 5 6 7 5 5 6 5 6 6 6
4 2 4 4 3 5 4 4 6 5 4 6 3 2 5 3 2 2 2 2 3 3 0 1 1 1 1 1 0 1 1 2 3 2 2 3 3 2 2 4 4 5 6 4 3 1 2 2 2 1 2 3 4 3 1 1 2 3 4 6 5 6 6 5 4 1 1 3 3 1 2 3 2 3 4 3 4 5 5 6 6 4 3 2 3 5 7 7
4 1 5 5 3 3 2 5 11 7 4 5 3 1 5 5 3 2 2 2 2 3 1 1 2 4 3 1 1 0 1 0 1 1 2 3 3 3 3 2 3 5 5 4 3 2 2 1 1 1 2 4 5 3 2 2 3 3 4 5 5 4 5 5 3 1 2 4 4 1 3 1 3 3 2 1 4 5 5 5 5 3 2 3 4 5 7 8
6 2 4 6 3 2 3 7 12 9 4 4 2 2 5 6 5 4 2 1 2 3 3 1 4 6 5 2 1 1 1 1 1 1 1 2 2 3 3 2 3 5 4 3 3 2 2 0 1 1 2 4 4 3 3 3 3 4 5 6 5 3 3 3 2 2 4 3 4 2 2 5 7 5 4 2 4 5 5 5 5 6 5 2 1 3 5 7
6 2 5 7 3 3 5 7 10 7 4 3 2 3 5 6 6 4 4 4 2 2 5 3 4 3 3 4 4 1 1 1 0 1 1 2 2 2 2 1 3 6 5 3 3 2 1 2 1 1 3 2 3 3 3 3 1 4 7 6 4 3 4 2 0 2 2 1 1 1 2 5 5 0 3 4 6 6 6 5 3 4 5 5 3 1 4 6
8 4 6 6 3 5 7 6 7 5 3 3 3 3 4 6 7 7 4 4 3 2 6 6 3 2 2 1 3 2 1 2 1 2 1 1 0 0 0 1 2 5 5 4 3 3 3 2 0 2 4 3 2 1 2 1 2 2 6 4 1 1 1 0 2 3 3 3 3 4 4 3 4 3 6 5 5 5 3 2 2 2 3 5 4 3 3 5
12 7 7 5 2 5 6 5 5 4 3 5 6 5 3 5 9 11 4 3 3 4 6 7 7 3 1 2 4 3 1 0 1 1 1 2 2 2 2 2 4 3 2 3 3 2 2 2 2 3 3 4 4 2 4 4 3 2 4 2 3 4 1 1 1 2 4 4 5 3 1 1 2 4 5 2 2 2 1 3 4 6 6 6 6 6 6 6
Wind_Direction
14 18 16 16 15 16 17 22 45 48 62 95 120 125 132 129 90 48 43 19 8 4 360 356 351 350 349 347 345 341 340 337 336 334 301 277 286 297 301 309 317 320 314 313 333 338 327 319 311 304 297 272 249 244 232 224 221 216 219 231 229 226 217 203 222 227 218 226 169 152 160 149 127 119 121 122 124 124 126 123 123 121 125 147 167 166 165 165
8 11 10 10 9 8 10 21 44 45 73 123 139 142 150 140 100 52 31 358 352 350 349 347 345 346 345 345 344 342 340 335 337 327 268 273 298 309 312 322 329 330 328 332 339 331 322 315 312 311 299 277 249 231 227 216 212 216 218 233 230 226 213 206 226 241 238 187 146 163 171 155 148 144 141 134 124 130 125 119 126 121 126 141 160 167 168 167
4 3 3 5 4 1 1 10 27 34 86 158 157 159 163 149 128 41 347 336 340 341 343 342 342 344 344 345 345 345 338 335 354 357 239 270 302 315 317 315 317 320 321 331 328 315 309 306 304 302 288 274 257 236 222 205 210 220 218 235 230 217 225 217 219 240 251 167 154 175 165 149 152 152 149 143 139 146 147 148 147 136 139 147 160 169 170 168
358 356 358 359 359 358 356 360 4 359 151 172 168 168 168 161 158 326 322 328 336 337 340 339 342 344 343 346 346 346 337 335 36 153 253 300 311 313 312 310 312 309 303 303 304 302 300 297 293 287 276 268 256 246 233 212 212 216 217 238 240 201 224 225 219 233 245 168 167 173 150 139 148 152 146 141 142 164 172 169 168 159 155 154 161 170 171 170
352 351 353 355 355 356 356 359 353 329 177 171 174 173 171 169 167 310 320 331 335 336 338 339 343 342 344 347 346 348 343 345 66 284 292 320 318 312 311 313 316 313 306 299 298 302 296 288 285 275 263 261 254 247 241 224 220 227 230 241 256 238 229 228 226 240 222 167 165 158 144 137 144 157 153 147 147 194 183 178 178 171 163 160 163 170 173 171
348 347 349 352 353 354 353 351 346 306 179 170 177 177 175 173 217 309 325 334 337 338 338 342 343 342 346 345 345 356 358 354 338 288 304 324 317 307 308 311 318 319 313 307 302 298 287 280 276 268 256 249 248 244 247 233 223 235 245 243 245 243 243 238 236 270 183 162 161 165 158 146 142 155 158 141 73 153 182 181 177 175 168 163 167 172 174 174
344 343 346 349 350 350 347 344 343 299 183 172 179 180 178 181 271 316 331 336 339 339 340 343 342 344 345 342 348 347 314 319 327 290 307 324 317 304 305 307 321 325 314 308 298 292 286 280 268 264 263 249 246 244 251 249 236 235 243 245 245 240 238 243 253 244 178 158 181 176 153 152 148 148 152 123 82 133 166 179 175 172 165 163 170 173 176 177
339 340 343 347 349 346 342 343 338 289 185 177 181 183 182 196 287 323 333 336 338 339 342 342 343 348 343 343 351 328 296 330 339 310 311 321 320 309 308 310 323 320 304 301 293 292 288 283 274 266 264 255 258 255 250 252 248 243 242 243 252 247 233 234 234 208 183 164 204 188 148 158 158 147 138 117 119 140 153 171 171 168 164 165 171 173 177 178
335 339 342 346 348 342 340 340 332 257 195 186 182 185 187 207 298 328 332 334 337 339 343 341 344 349 342 342 340 315 326 339 313 316 317 322 327 321 317 317 319 305 292 294 290 287 277 275 275 268 270 269 267 269 264 257 245 241 243 242 249 253 235 228 206 193 200 170 194 211 150 151 151 136 112 123 135 141 149 159 164 167 167 167 170 173 176 178
332 338 342 345 344 340 340 337 323 249 210 192 184 186 188 215 303 326 328 332 338 340 342 341 345 346 342 341 325 301 341 321 309 322 321 319 325 328 327 319 308 298 293 293 289 280 272 273 276 282 291 284 275 280 279 277 272 256 249 242 239 241 233 224 202 194 204 170 177 219 147 127 143 136 104 145 146 148 151 153 161 167 168 168 171 173 174 178
331 337 339 344 339 337 340 332 310 244 208 194 188 185 190 228 303 318 325 330 336 338 341 342 341 341 342 332 296 280 330 326 318 322 321 319 323 325 324 314 295 290 290 288 285 276 275 275 278 288 288 272 270 275 271 270 285 282 277 264 239 229 223 221 206 194 192 172 174 180 111 121 141 139 140 152 154 160 156 152 159 162 163 165 168 172 177 181
330 336 339 343 336 336 339 327 304 238 203 194 188 185 199 233 290 307 321 328 333 335 340 342 336 336 340 323 274 266 326 334 326 324 329 329 324 315 313 308 292 285 281 277 276 269 275 276 274 277 265 271 277 264 272 286 301 290 281 297 254 226 218 212 207 199 189 168 162 137 87 131 132 114 141 149 156 160 156 153 157 159 161 164 167 172 178 184
330 335 341 341 337 338 335 324 299 237 203 191 186 189 206 233 280 300 317 323 329 333 337 338 331 332 336 318 280 280 320 333 337 343 340 322 315 312 308 296 283 287 282 268 266 260 265 270 264 266 267 278 280 274 299 305 316 297 260 280 262 247 232 207 197 202 195 162 161 149 117 217 115 125 140 148 154 152 152 154 158 160 162 166 170 173 178 186
330 336 341 339 339 339 328 320 292 232 196 187 187 194 210 247 276 295 312 319 328 328 333 334 329 332 321 296 294 300 321 337 348 349 320 309 314 314 316 298 281 298 298 275 270 259 258 267 262 269 270 267 270 284 305 299 305 305 238 133 226 226 221 202 184 188 188 166 168 168 200 177 125 139 144 149 156 152 150 155 159 161 164 168 169 174 179 185
331 337 341 339 340 336 323 316 279 219 188 186 190 199 225 254 276 296 306 317 328 324 329 330 326 329 310 285 299 317 333 343 343 331 316 317 322 318 317 299 274 288 289 280 281 264 256 268 257 260 268 261 263 274 293 280 227 231 225 185 212 218 203 190 182 179 172 173 181 184 173 155 140 152 151 152 160 158 152 155 161 162 166 170 169 174 177 181
332 339 339 339 340 333 320 309 261 206 184 185 195 211 236 261 284 295 301 313 323 320 319 325 326 322 307 300 330 337 341 336 326 322 319 319 320 316 311 292 272 273 272 275 278 259 246 256 250 250 262 264 257 243 255 268 240 216 224 209 199 209 209 186 189 185 167 163 193 198 134 133 144 158 158 157 162 163 155 154 162 165 169 171 170 173 175 179
334 339 336 339 341 329 318 308 239 193 179 186 206 224 251 276 292 295 300 310 317 316 311 319 326 302 264 338 344 337 331 325 321 322 324 323 319 319 315 304 292 283 275 269 260 244 235 234 240 246 244 245 251 239 241 244 240 230 218 236 216 199 197 184 206 189 165 158 184 190 99 114 139 155 160 163 167 166 160 158 164 168 170 172 172 174 177 180
334 337 335 342 340 328 324 313 212 176 171 195 217 238 270 286 299 298 301 312 317 319 312 329 334 299 242 325 333 324 321 324 327 327 331 330 324 320 312 301 294 287 276 257 236 227 220 219 225 235 226 216 229 235 229 232 234 226 213 234 231 193 186 186 188 167 165 159 164 162 121 120 134 150 159 166 172 166 162 164 167 169 170 171 172 174 177 179
331 334 337 343 340 333 333 311 165 160 176 210 226 261 295 303 300 291 303 322 316 328 339 335 337 300 272 306 317 318 321 328 332 333 329 323 322 316 304 297 284 272 269 251 211 205 199 210 227 228 241 223 208 207 220 243 256 265 236 225 212 194 182 178 163 157 166 158 163 169 149 137 146 157 159 167 173 166 159 162 166 169 169 171 172 174 176 177
326 334 339 342 339 338 337 267 146 157 189 217 241 300 326 322 302 282 340 312 271 289 316 322 323 295 291 304 317 325 329 336 337 332 318 322 327 314 297 279 262 256 255 247 185 195 198 207 235 226 242 237 216 213 216 250 268 284 295 248 212 185 168 158 141 168 173 157 173 171 139 142 157 159 160 166 172 167 160 160 165 169 170 172 173 173 174 176
324 334 340 342 340 342 333 152 145 165 201 221 248 353 334 327 312 320 340 305 252 276 298 324 331 321 318 319 323 331 334 337 338 326 314 328 337 321 297 236 246 252 228 230 225 210 215 233 248 237 261 272 230 230 212 227 255 244 302 265 222 160 143 129 131 161 173 148 165 158 132 144 162 155 160 165 170 171 165 164 166 169 172 175 175 173 171 173
325 331 341 341 344 3 333 153 151 184 209 219 239 352 314 312 301 304 324 305 272 280 293 328 336 335 334 324 322 334 332 324 331 327 323 336 340 310 308 258 269 274 219 223 227 241 232 232 249 272 322 269 216 205 206 220 252 232 183 252 215 152 114 17 98 122 120 120 142 144 134 141 155 150 159 167 174 177 172 171 169 169 172 175 176 173 169 171
320 328 342 339 2 26 317 167 168 203 215 225 247 290 290 296 300 301 306 296 280 275 289 316 323 335 337 324 324 335 329 302 320 320 324 335 329 268 290 294 288 290 262 214 222 247 241 234 307 317 303 264 231 93 40 268 268 216 204 234 193 157 145 10 82 107 79 75 125 129 117 110 140 141 155 173 175 170 169 171 171 172 174 176 178 175 172 174
314 330 340 340 52 57 29 176 191 213 220 253 265 270 284 294 298 305 305 288 266 270 294 310 321 339 342 333 334 342 326 291 298 304 318 332 326 290 282 296 306 298 288 241 307 300 264 315 334 301 264 276 301 29 22 330 284 219 207 206 173 160 137 118 140 104 71 50 107 116 102 68 158 154 158 171 170 163 161 163 167 173 176 176 179 177 176 178
309 332 337 348 92 93 129 186 205 209 231 267 281 281 286 293 294 308 314 283 244 289 312 324 332 345 346 342 341 336 312 293 292 296 316 334 334 312 291 299 280 274 350 28 1 285 255 334 338 307 253 337 319 340 39 260 234 190 205 192 158 146 121 120 129 105 76 56 125 119 117 188 192 170 165 159 165 167 163 165 168 171 174 176 178 178 179 182
299 325 337 139 124 125 154 181 198 206 263 286 289 289 288 292 297 307 313 269 232 320 337 336 330 341 347 348 339 326 303 295 311 306 321 340 341 323 298 296 252 277 348 44 270 244 317 357 353 326 275 138 79 292 220 250 214 134 42 55 132 136 129 135 141 122 112 143 105 83 106 139 215 199 171 156 164 166 166 172 173 174 175 175 178 179 180 182
283 311 331 148 139 143 168 182 189 193 244 301 295 298 296 294 298 299 297 227 235 320 324 333 335 337 341 341 335 328 299 316 325 319 332 339 338 318 288 328 330 308 323 169 275 35 356 349 3 351 316 132 97 265 263 316 2 118 102 76 106 128 131 139 140 109 105 113 82 28 155 121 191 192 164 162 167 162 170 178 174 178 180 177 177 180 182 183
263 293 165 149 149 160 199 219 207 203 223 270 296 311 303 292 305 306 305 207 303 330 317 325 325 329 343 342 329 316 298 306 327 342 333 335 346 303 251 1 360 314 345 21 319 33 43 358 360 347 338 100 149 258 282 316 359 104 114 104 91 106 109 106 108 98 116 126 120 237 240 143 148 158 148 164 182 176 179 183 173 176 181 180 178 181 183 185
237 250 168 158 162 178 218 226 222 227 235 255 293 309 299 308 319 309 278 271 312 17 6 341 335 335 348 348 334 341 332 286 262 331 325 329 3 337 243 244 342 317 8 42 41 14 26 332 316 313 338 18 305 275 267 273 110 104 103 96 80 80 78 70 88 95 113 154 177 183 188 170 152 161 160 174 201 193 179 180 178 174 176 178 179 181 184 185
219 208 171 169 173 188 207 217 225 236 238 254 280 295 309 320 318 283 258 276 67 29 334 341 343 333 345 348 329 344 345 293 307 332 329 314 350 0 317 282 291 307 11 49 73 3 291 292 309 343 346 296 287 294 299 103 112 113 101 89 90 84 67 67 63 69 115 184 187 155 190 214 168 180 183 180 190 184 173 171 176 175 172 174 177 180 183 184
201 183 176 176 175 191 201 202 209 221 231 251 275 307 322 311 269 269 276 241 87 346 335 340 340 336 348 352 311 332 336 314 327 343 340 312 316 18 4 332 327 341 279 340 26 287 315 338 335 311 334 321 276 320 12 58 92 104 97 110 126 86 61 82 60 63 161 188 159 161 222 227 124 182 191 189 166 169 177 173 171 173 171 173 176 180 183 184
191 182 179 178 182 199 201 190 192 204 208 242 338 341 334 293 219 251 274 350 328 349 21 309 323 339 335 323 295 322 325 312 334 345 329 329 350 33 37 41 340 331 49 337 330 356 336 334 321 305 345 356 331 302 14 32 37 47 79 263 91 97 108 119 116 161 170 84 128 199 231 232 3 115 154 173 172 167 176 172 167 170 171 173 176 178 181 183
184 183 180 182 189 203 206 193 179 181 192 282 357 350 337 287 265 259 269 340 299 302 350 253 292 310 302 308 313 324 307 248 322 339 336 2 12 46 73 56 15 354 8 333 323 349 316 217 344 357 13 359 0 66 34 23 11 22 36 335 15 131 157 121 138 154 101 75 131 248 245 112 14 81 128 144 127 128 151 164 168 172 174 174 175 176 179 182
177 181 183 186 194 204 209 193 168 170 181 18 6 340 357 309 245 261 246 273 240 266 289 229 305 306 279 276 306 342 323 235 301 349 357 10 15 9 21 36 30 16 293 304 291 344 14 354 355 16 357 348 5 77 34 159 120 40 192 126 58 48 78 121 146 92 110 111 54 271 301 85 138 338 42 85 88 87 108 147 165 172 176 174 173 175 178 181
176 182 183 188 200 206 202 183 168 170 156 31 2 245 353 332 220 101 219 256 12 302 307 346 322 314 293 231 226 132 86 277 335 2 11 25 28 357 340 352 14 13 322 343 311 314 52 356 312 336 215 300 328 230 240 214 128 124 152 84 59 253 55 57 20 58 118 116 69 50 28 29 152 202 11 74 85 82 91 121 147 159 168 170 170 175 179 183
173 179 183 187 199 202 190 173 170 165 114 35 321 242 268 125 278 4 12 327 10 343 319 319 290 314 330 302 268 349 114 200 323 338 20 84 61 360 345 326 353 33 85 2 338 323 49 339 295 177 215 238 226 221 219 182 21 346 57 26 269 162 101 22 12 12 51 96 70 42 90 59 145 154 147 100 92 90 95 106 123 140 156 164 169 176 181 186
171 169 168 181 190 195 180 161 163 157 79 24 298 287 124 127 326 342 3 9 55 35 316 322 54 2 332 332 325 341 349 230 316 338 335 62 62 344 345 326 326 41 112 184 317 358 58 320 272 210 270 244 220 221 217 194 191 19 3 310 227 93 76 58 75 347 3 86 85 92 111 125 256 115 166 139 112 110 117 114 117 131 147 157 165 172 177 184
166 156 147 194 190 180 169 154 149 118 63 3 249 175 135 125 341 345 1 18 62 62 327 314 39 46 345 336 324 330 343 340 344 352 347 357 6 356 360 328 316 357 21 177 218 351 83 299 273 207 221 248 222 223 318 234 207 211 278 273 132 67 32 306 115 331 61 94 108 112 95 58 19 93 162 153 137 137 136 127 126 140 152 156 165 172 175 181
149 140 203 213 188 173 159 147 123 96 63 275 237 131 152 23 356 345 359 28 40 12 335 303 135 107 41 350 333 326 342 354 342 344 10 359 341 30 51 353 307 334 344 323 237 318 261 194 317 244 187 176 347 27 22 327 266 239 276 314 89 130 202 238 276 252 121 109 129 122 88 32 348 344 27 108 127 136 139 142 145 152 158 162 172 181 185 188
142 137 250 211 184 172 147 131 113 100 96 301 359 49 169 95 10 308 328 62 50 2 350 356 354 56 23 20 36 325 315 333 339 350 20 351 331 34 53 20 314 320 329 313 240 326 302 182 352 317 132 89 24 29 42 315 323 335 348 10 7 340 348 118 5 275 121 96 95 92 78 22 310 330 18 57 65 83 116 134 131 133 143 153 169 183 191 196
145 150 246 196 178 168 144 120 96 81 172 38 57 115 166 95 61 289 314 100 74 29 35 334 298 340 39 2 19 331 307 318 340 4 22 6 14 40 20 9 334 316 328 322 279 12 345 332 4 334 349 40 82 47 44 328 327 359 29 20 340 306 315 17 22 353 49 81 104 114 102 11 306 346 22 48 47 36 56 91 108 116 126 140 156 173 186 195
153 212 225 182 174 164 149 117 89 80 63 61 63 83 123 96 123 267 291 85 97 358 40 272 275 329 63 79 354 354 323 318 342 14 16 1 36 284 332 349 336 311 317 325 324 25 358 307 339 297 312 66 120 108 40 19 322 328 16 339 318 306 346 50 45 336 356 49 110 114 98 358 306 359 22 49 64 59 63 82 100 113 123 138 152 164 177 185
165 209 174 173 169 162 158 120 141 125 62 29 47 86 106 86 40 271 261 256 141 182 126 246 251 346 49 63 28 5 349 335 330 353 351 297 296 284 333 346 343 325 317 326 330 360 27 342 340 288 270 81 118 147 92 34 1 14 336 320 1 341 237 185 217 286 26 31 10 73 74 349 303 352 36 78 89 98 98 94 101 113 124 141 154 166 178 181
167 159 155 169 170 171 181 315 131 139 101 48 91 122 81 82 47 280 264 236 218 109 212 281 224 187 58 3 317 322 1 359 302 294 250 265 291 334 342 351 358 350 353 17 320 339 4 25 352 320 331 8 18 2 353 350 12 13 325 337 18 346 329 297 254 314 55 33 71 97 81 315 295 304 138 137 121 113 113 111 111 116 127 141 148 166 185 189
159 156 146 171 175 180 210 293 53 113 125 130 161 184 140 112 195 271 293 237 190 28 339 330 7 301 266 27 349 246 159 163 267 304 285 270 291 296 331 346 2 356 328 274 293 331 23 34 6 38 47 29 356 317 307 320 330 316 319 351 13 359 359 2 304 35 38 348 25 88 116 249 289 58 129 141 124 111 112 117 115 114 126 148 167 180 189 196
173 172 132 157 182 200 233 255 186 119 136 162 169 191 178 127 167 239 272 246 193 189 281 278 327 293 217 189 244 213 175 189 220 289 318 327 318 267 312 335 339 335 329 317 320 356 102 72 36 70 102 149 200 236 213 264 303 294 322 347 356 357 355 358 61 68 43 4 31 38 125 128 106 108 111 117 118 123 136 131 119 109 118 142 171 192 205 209
187 215 168 150 172 207 239 234 186 157 156 177 172 162 174 146 92 198 252 266 198 171 183 292 279 211 189 160 253 187 178 208 228 274 316 307 284 260 300 330 326 328 336 344 353 9 115 57 28 78 154 186 206 229 204 209 265 282 319 327 330 350 4 35 72 96 241 79 77 329 23 70 118 121 111 124 124 120 114 102 100 112 137 163 195 206 216 220
196 233 187 169 156 177 213 209 190 172 148 168 160 134 173 160 135 181 239 262 210 189 198 289 254 231 234 278 18 205 148 41 280 292 316 302 297 307 309 302 313 334 339 346 8 55 109 50 25 189 239 231 213 206 192 224 261 276 287 288 294 338 21 63 85 38 48 99 156 211 34 47 244 272 309 345 88 91 79 64 65 86 141 221 230 221 221 225
212 247 191 179 168 142 143 174 175 162 149 169 172 198 191 179 170 166 133 134 245 225 188 268 268 229 209 162 119 50 51 52 294 274 296 294 294 322 332 310 314 335 345 341 352 53 129 42 75 124 283 256 206 199 208 219 286 295 277 275 286 332 33 67 83 70 83 138 193 211 335 274 253 253 271 341 66 83 82 70 57 51 51 52 192 218 227 234
209 227 174 167 149 123 130 146 155 151 155 174 189 206 198 193 181 150 132 169 225 208 176 220 273 225 155 139 147 131 57 122 172 260 297 317 297 318 1 15 322 328 340 349 338 343 22 22 100 108 334 295 195 205 214 172 59 310 295 296 304 349 17 27 124 110 98 149 208 106 334 287 277 164 85 74 84 95 87 71 52 26 15 10 7 295 245 244
196 188 171 162 140 145 148 150 161 164 163 182 197 184 189 215 192 149 144 207 226 198 184 187 180 129 70 155 193 188 138 125 181 231 242 24 54 226 347 23 346 330 332 346 340 337 8 7 277 48 13 316 244 210 267 221 101 326 317 325 197 202 359 289 203 178 157 132 81 55 33 311 301 24 67 84 91 93 77 29 18 357 337 332 323 310 286 260
201 199 192 178 140 159 166 163 174 186 185 183 183 165 172 215 177 152 151 236 220 210 196 173 152 141 338 272 229 212 170 155 232 212 156 122 131 131 103 55 51 48 345 333 338 340 4 355 334 29 22 301 304 329 298 327 41 9 330 7 166 193 212 208 236 219 198 152 116 101 72 242 290 27 49 60 51 52 351 323 316 299 294 290 278 270 268 262